| time (UTC) | temp F | wind direction | speed MPH | gust MPH | rain 1hr in | rain 24hr in | rain mn in | humidity % | barometer mb |
| 20260505130106 | 42 | 315 | 3.0 | 8.0 | 0.00 | 0.00 | 0.00 | 66 | 1010.2 |
| 20260505124552 | 41 | 330 | 3.0 | 6.0 | 0.00 | 0.00 | 0.00 | 67 | 1010.0 |
| 20260505123045 | 41 | 328 | 0.0 | 1.0 | 0.00 | 0.00 | 0.00 | 68 | 1009.9 |
| 20260505121539 | 39 | 242 | 0.0 | 1.0 | 0.00 | 0.00 | 0.00 | 71 | 1009.7 |
| 20260505120035 | 37 | 248 | 0.0 | 0.0 | 0.00 | 0.00 | 0.00 | 72 | 1009.4 |
| 20260505114533 | 36 | 283 | 0.0 | 0.0 | 0.00 | 0.00 | 0.00 | 72 | 1009.1 |
| 20260505113031 | 34 | 284 | 0.0 | 0.0 | 0.00 | 0.00 | 0.00 | 74 | 1008.7 |
| 20260505111535 | 33 | 284 | 0.0 | 0.0 | 0.00 | 0.00 | 0.00 | 76 | 1008.3 |
| 20260505101520 | 33 | 79 | 0.0 | 1.0 | 0.00 | 0.00 | 0.00 | 77 | 1007.6 |
| 20260505100027 | 33 | 288 | 0.0 | 1.0 | 0.00 | 0.00 | 0.00 | 76 | 1007.6 |
| 20260505094519 | 33 | 316 | 0.0 | 1.0 | 0.00 | 0.00 | 0.00 | 77 | 1007.7 |
| 20260505093018 | 32 | 224 | 0.0 | 0.0 | 0.00 | 0.00 | 0.00 | 76 | 1007.7 |
| 20260505091516 | 33 | 225 | 0.0 | 0.0 | 0.00 | 0.00 | 0.00 | 75 | 1007.5 |
| 20260505090014 | 33 | 244 | 0.0 | 0.0 | 0.00 | 0.00 | 0.00 | 75 | 1007.3 |
| 20260505084517 | 34 | 244 | 0.0 | 0.0 | 0.00 | 0.00 | 0.00 | 74 | 1007.0 |
| 20260505083013 | 35 | 244 | 0.0 | 1.0 | 0.00 | 0.00 | 0.00 | 73 | 1006.8 |
| 20260505081508 | 35 | 233 | 0.0 | 1.0 | 0.00 | 0.00 | 0.00 | 73 | 1006.6 |
| 20260505080006 | 35 | 233 | 0.0 | 1.0 | 0.00 | 0.00 | 0.00 | 74 | 1006.5 |
| 20260505074505 | 34 | 233 | 0.0 | 1.0 | 0.00 | 0.00 | 0.00 | 73 | 1006.5 |
| 20260505073005 | 34 | 248 | 0.0 | 1.0 | 0.00 | 0.00 | 0.00 | 73 | 1006.4 |
| 20260505071506 | 35 | 274 | 0.0 | 0.0 | 0.00 | 0.00 | 0.00 | 71 | 1006.4 |
| 20260505070112 | 36 | 274 | 0.0 | 0.0 | 0.00 | 0.00 | 0.00 | 70 | 1006.4 |
| 20260505064559 | 36 | 49 | 0.0 | 1.0 | 0.00 | 0.00 | 0.00 | 69 | 1006.5 |
| 20260505063054 | 37 | 18 | 0.0 | 1.0 | 0.00 | 0.00 | 0.00 | 68 | 1006.4 |
| 20260505061557 | 38 | 354 | 0.0 | 1.0 | 0.00 | 0.00 | 0.00 | 66 | 1006.4 |
| 20260505060049 | 39 | 357 | 0.0 | 1.0 | 0.00 | 0.00 | 0.00 | 65 | 1006.5 |
| 20260505054553 | 39 | 65 | 0.0 | 1.0 | 0.00 | 0.00 | 0.00 | 65 | 1006.3 |
| 20260505053055 | 39 | 334 | 0.0 | 0.0 | 0.00 | 0.00 | 0.00 | 66 | 1006.3 |
| 20260505051545 | 39 | 96 | 0.0 | 0.0 | 0.00 | 0.00 | 0.00 | 65 | 1006.3 |
| 20260505041536 | 39 | 304 | 0.0 | 0.0 | 0.00 | 0.00 | 0.00 | 63 | 1006.1 |
| 20260505040040 | 40 | 304 | 0.0 | 0.0 | 0.00 | 0.00 | 0.00 | 62 | 1006.2 |
| 20260505034529 | 41 | 304 | 0.0 | 0.0 | 0.00 | 0.00 | 0.00 | 60 | 1006.2 |
| 20260505033031 | 43 | 304 | 0.0 | 2.0 | 0.00 | 0.00 | 0.00 | 58 | 1006.2 |
| 20260505031522 | 44 | 322 | 1.0 | 4.0 | 0.00 | 0.00 | 0.00 | 56 | 1006.2 |
| 20260505030025 | 45 | 338 | 4.0 | 9.0 | 0.00 | 0.00 | 0.00 | 55 | 1006.1 |
| 20260505024515 | 46 | 316 | 7.0 | 13.0 | 0.00 | 0.00 | 0.00 | 53 | 1005.9 |
| 20260505023018 | 47 | 335 | 10.0 | 17.0 | 0.00 | 0.00 | 0.00 | 53 | 1005.6 |
| 20260505021509 | 48 | 329 | 15.0 | 26.0 | 0.00 | 0.00 | 0.00 | 51 | 1005.1 |
| 20260505020004 | 49 | 332 | 13.0 | 21.0 | 0.00 | 0.00 | 0.00 | 51 | 1004.8 |
| 20260505014502 | 49 | 326 | 13.0 | 21.0 | 0.00 | 0.00 | 0.00 | 51 | 1004.4 |
| 20260505013102 | 49 | 264 | 7.0 | 14.0 | 0.00 | 0.00 | 0.00 | 50 | 1004.1 |
| 20260505011556 | 50 | 339 | 7.0 | 22.0 | 0.00 | 0.00 | 0.00 | 49 | 1003.8 |
| 20260505010100 | 51 | 329 | 13.0 | 22.0 | 0.00 | 0.00 | 0.00 | 49 | 1003.5 |
| 20260505004550 | 51 | 330 | 6.0 | 17.0 | 0.00 | 0.00 | 0.00 | 49 | 1003.2 |
| 20260505003046 | 52 | 326 | 10.0 | 25.0 | 0.00 | 0.00 | 0.00 | 49 | 1003.1 |
| 20260505001543 | 53 | 331 | 5.0 | 18.0 | 0.00 | 0.00 | 0.00 | 49 | 1002.8 |
| 20260505000041 | 53 | 293 | 5.0 | 21.0 | 0.00 | 0.00 | 0.00 | 48 | 1002.7 |
| 20260504234539 | 54 | 287 | 6.0 | 27.0 | 0.00 | 0.00 | 0.00 | 48 | 1002.4 |
| 20260504233042 | 56 | 329 | 8.0 | 15.0 | 0.00 | 0.00 | 0.00 | 47 | 1002.3 |
| 20260504231535 | 57 | 327 | 14.0 | 23.0 | 0.00 | 0.00 | 0.00 | 46 | 1002.1 |
| 20260504230034 | 58 | 309 | 11.0 | 22.0 | 0.00 | 0.00 | 0.00 | 45 | 1001.9 |
| 20260504224534 | 59 | 299 | 9.0 | 21.0 | 0.00 | 0.00 | 0.00 | 43 | 1001.6 |
| 20260504223033 | 60 | 347 | 7.0 | 17.0 | 0.00 | 0.00 | 0.00 | 44 | 1001.3 |
| 20260504221536 | 61 | 10 | 2.0 | 23.0 | 0.00 | 0.00 | 0.00 | 43 | 1001.0 |
| 20260504220033 | 61 | 347 | 3.0 | 14.0 | 0.00 | 0.00 | 0.00 | 43 | 1000.8 |
| 20260504214533 | 60 | 332 | 15.0 | 24.0 | 0.00 | 0.00 | 0.00 | 40 | 1000.6 |
| 20260504213031 | 61 | 249 | 4.0 | 17.0 | 0.00 | 0.00 | 0.00 | 42 | 1000.5 |
| 20260504211531 | 62 | 247 | 6.0 | 14.0 | 0.00 | 0.00 | 0.00 | 41 | 1000.3 |
| 20260504210031 | 62 | 327 | 9.0 | 23.0 | 0.00 | 0.00 | 0.00 | 40 | 1000.3 |
| 20260504204530 | 62 | 324 | 8.0 | 25.0 | 0.00 | 0.00 | 0.00 | 39 | 1000.3 |
| 20260504203032 | 62 | 345 | 6.0 | 17.0 | 0.00 | 0.00 | 0.00 | 39 | 1000.5 |
| 20260504201528 | 63 | 307 | 6.0 | 29.0 | 0.00 | 0.00 | 0.00 | 37 | 1000.5 |
| 20260504200037 | 63 | 355 | 8.0 | 22.0 | 0.00 | 0.00 | 0.00 | 37 | 1000.3 |
| 20260504194526 | 63 | 23 | 5.0 | 15.0 | 0.00 | 0.00 | 0.00 | 35 | 1000.1 |
| 20260504193026 | 63 | 325 | 5.0 | 12.0 | 0.00 | 0.00 | 0.00 | 34 | 1000.1 |
| 20260504191537 | 63 | 346 | 6.0 | 38.0 | 0.00 | 0.00 | 0.00 | 34 | 999.8 |
| 20260504190024 | 64 | 300 | 4.0 | 15.0 | 0.00 | 0.00 | 0.00 | 38 | 999.8 |
| 20260504184522 | 63 | 346 | 6.0 | 15.0 | 0.00 | 0.00 | 0.00 | 41 | 999.5 |
| 20260504183036 | 63 | 3 | 7.0 | 17.0 | 0.00 | 0.00 | 0.00 | 40 | 999.5 |
| 20260504181526 | 64 | 336 | 6.0 | 15.0 | 0.00 | 0.00 | 0.00 | 42 | 999.1 |
| 20260504180022 | 63 | 144 | 2.0 | 18.0 | 0.00 | 0.00 | 0.00 | 41 | 999.0 |
| 20260504174522 | 64 | 347 | 6.0 | 16.0 | 0.00 | 0.00 | 0.00 | 42 | 998.7 |
| 20260504173021 | 65 | 313 | 12.0 | 24.0 | 0.00 | 0.00 | 0.00 | 44 | 998.6 |
| 20260504171519 | 64 | 301 | 12.0 | 20.0 | 0.00 | 0.00 | 0.00 | 41 | 998.6 |